Dewpoint
21 20 16 17 14 13 14 13 13 12 16 22 20 22 23 23 26 29 34 45 44 40 38 38 39 43 47 52 55 56 56 58 57 56 57 56 56 56 58 59 60 63 61 67 69 69 69 69 71 71 70 71 72 73 74 75 75 75 74 74 74 74 76 75 75 75 73 72 72 72 72 71 70 73 74 74 74 73 71 74 75 74 74 74 73 73
20 21 16 14 12 14 13 13 16 19 15 20 19 16 19 23 23 31 42 48 46 40 42 48 44 44 48 51 54 57 54 54 56 57 58 56 57 57 59 59 61 63 64 69 69 69 70 69 70 70 70 71 72 73 73 73 73 74 74 74 74 75 76 77 76 76 76 75 72 71 70 70 68 70 69 68 69 68 71 72 73 73 73 73 73 73
19 17 16 14 15 22 23 20 16 20 16 13 14 13 13 18 29 37 41 45 46 42 41 47 45 47 50 53 56 56 53 52 53 56 57 58 58 59 59 60 63 64 66 67 66 69 68 69 70 71 70 71 71 72 73 73 74 74 74 74 74 74 74 76 76 76 75 75 76 75 73 70 65 66 68 65 67 70 71 72 73 73 72 72 72 73
16 13 14 14 20 19 19 20 16 18 16 13 12 16 15 18 28 29 41 44 46 38 39 49 41 51 54 58 56 57 53 58 61 60 60 60 61 60 58 60 63 64 67 66 67 65 67 69 70 71 71 71 71 72 72 73 73 74 74 75 75 75 75 74 74 73 74 73 74 73 71 70 68 66 68 70 69 67 68 70 72 72 72 72 72 72
9 10 15 18 18 20 19 18 20 17 15 15 16 12 13 21 24 19 38 44 46 44 47 48 44 50 53 50 54 58 60 58 59 61 62 62 62 63 61 61 63 63 66 65 65 65 67 69 69 71 71 71 71 71 71 73 73 74 74 74 75 74 74 73 74 74 72 72 70 69 69 68 66 67 65 64 62 65 65 64 68 69 71 71 71 72
13 18 20 18 17 22 18 17 16 15 16 14 14 16 13 12 21 20 43 44 40 40 43 43 38 39 48 47 44 50 57 58 58 59 61 63 62 65 64 65 65 65 65 66 66 66 67 68 70 71 72 71 70 71 73 73 74 75 74 75 74 73 72 72 72 71 70 69 67 66 65 62 63 63 63 62 63 62 65 64 65 67 68 68 70 70
16 21 21 16 18 23 17 15 17 15 13 13 15 16 15 20 19 27 42 35 31 31 41 42 35 28 38 47 48 51 53 55 58 59 57 61 64 63 63 63 64 64 65 66 65 65 65 67 70 71 72 71 70 73 73 74 75 75 74 74 73 72 71 71 71 70 69 70 67 64 62 62 62 61 62 64 65 65 66 66 66 66 67 69 69 68
23 23 21 22 19 17 15 14 14 14 12 13 25 25 24 24 31 39 37 27 26 30 43 43 39 32 33 40 50 52 54 53 56 59 59 56 62 60 61 61 64 63 64 65 67 67 66 68 68 70 71 70 70 73 74 74 74 74 73 73 71 70 70 70 70 69 68 66 65 65 64 64 63 61 63 65 66 66 66 65 66 66 67 69 69 69
19 23 20 19 17 14 13 12 19 21 13 25 31 27 25 29 34 32 29 25 33 37 44 45 43 38 32 38 47 51 51 53 54 56 58 59 60 61 60 60 63 64 64 64 64 66 66 68 69 70 71 71 72 72 72 73 73 72 71 71 70 69 69 69 69 67 67 67 66 65 65 64 64 64 64 62 65 65 66 66 65 67 66 68 69 70
20 19 19 16 14 12 25 19 19 23 16 32 38 38 38 37 34 30 28 28 36 35 30 36 41 32 27 31 47 49 50 51 52 54 55 58 59 61 60 60 62 65 66 65 64 65 67 68 68 69 70 72 69 70 71 70 69 69 70 69 68 68 68 69 68 69 68 66 66 66 66 66 66 67 67 65 66 66 66 66 66 66 66 65 67 68
19 31 37 19 15 25 20 21 20 20 27 37 36 34 35 33 35 37 33 34 34 29 28 25 30 27 20 28 30 47 50 49 47 51 53 57 59 60 62 61 61 64 66 65 64 65 67 67 69 71 71 70 68 68 68 67 67 66 67 67 67 68 67 68 69 68 67 67 66 66 65 65 65 65 65 64 65 65 65 65 65 65 66 66 65 66
20 23 23 25 20 19 21 22 20 24 32 33 27 29 33 37 38 36 34 38 29 24 31 29 29 31 25 24 28 37 44 43 42 43 52 53 57 60 62 61 61 64 65 66 65 65 67 70 70 69 69 68 67 67 66 65 65 65 66 67 67 67 68 69 69 68 66 65 66 66 65 65 65 65 64 64 64 65 65 65 65 65 66 66 66 66
17 17 21 21 27 17 19 20 23 25 28 22 24 28 21 27 30 24 29 26 23 20 36 29 31 31 34 32 29 28 38 47 45 41 45 53 55 60 61 62 62 63 64 65 65 67 69 69 69 68 69 67 67 66 66 65 62 65 66 66 66 68 69 68 67 68 67 67 67 65 65 65 65 66 64 65 64 65 65 65 65 65 65 65 65 65
15 20 18 22 22 25 16 13 19 19 21 17 22 24 21 24 21 22 22 22 20 30 27 28 37 28 28 30 36 34 31 43 47 46 45 50 55 59 62 63 61 63 63 63 65 66 68 68 68 69 68 67 66 66 66 65 64 66 65 66 66 67 66 65 65 63 63 64 64 65 65 65 66 65 65 65 63 64 65 65 65 65 64 65 65 64
15 15 18 18 15 20 17 13 15 15 16 16 15 15 21 24 19 22 20 20 20 18 31 35 29 25 22 28 43 49 49 50 49 49 51 54 55 58 60 63 61 63 64 64 65 66 68 68 68 68 68 66 66 65 64 65 66 66 64 66 66 65 65 64 64 63 64 64 64 65 65 66 66 64 64 64 65 65 65 64 65 66 65 64 65 64
12 13 16 20 22 18 18 19 17 14 17 15 16 18 20 21 22 15 27 20 20 22 27 34 25 27 25 49 48 49 48 50 50 52 53 56 58 58 60 61 61 62 62 62 64 66 68 69 69 68 67 66 65 66 64 66 66 64 65 66 65 65 65 64 64 64 64 64 65 66 65 65 65 65 64 65 65 65 65 65 65 65 65 65 64 65
21 16 22 26 24 18 16 20 21 18 17 19 19 19 19 22 16 26 28 22 21 21 21 32 29 27 28 26 29 39 45 46 50 50 49 52 54 59 60 62 61 62 61 62 65 66 68 68 68 67 67 64 63 64 64 67 66 65 65 65 65 66 65 65 65 65 65 65 65 66 66 65 64 63 63 62 62 63 64 66 65 64 64 65 65 63
15 18 23 23 26 22 23 18 22 20 22 17 16 17 25 22 24 28 19 30 22 18 22 25 24 22 25 22 40 42 36 36 48 52 49 52 54 57 60 62 63 63 62 64 66 66 67 67 67 65 64 63 63 64 66 67 66 65 66 64 65 65 65 66 65 65 65 65 65 65 66 65 65 63 63 63 62 63 64 64 65 65 64 63 63 63
16 16 22 22 22 24 23 20 17 21 22 17 16 24 15 20 20 28 27 22 21 20 21 24 23 20 24 28 27 35 32 35 42 55 53 52 52 56 59 62 65 64 62 63 63 65 66 65 64 64 61 60 63 66 67 67 65 64 65 64 64 65 65 66 65 65 66 65 64 65 65 64 64 64 63 63 63 64 64 64 64 64 64 64 64 64
15 12 21 24 23 24 21 17 18 16 21 21 22 19 19 23 26 29 27 27 26 19 20 20 22 22 29 25 28 28 33 34 37 54 54 52 53 56 60 62 64 64 62 62 63 65 65 63 61 58 59 59 63 65 66 63 61 60 63 65 65 65 66 66 66 66 65 66 65 65 65 65 64 64 63 63 63 63 62 63 63 64 63 64 63 63
19 27 20 21 26 21 19 19 15 17 18 18 19 19 20 21 25 25 27 22 21 24 22 21 16 23 31 29 27 32 34 36 37 46 55 54 54 56 60 62 64 65 62 62 63 64 63 61 58 58 59 60 63 65 62 59 59 58 60 63 63 65 65 65 65 65 65 65 65 65 65 64 64 64 63 63 63 63 63 64 64 63 63 65 64 64
23 21 16 23 22 19 15 18 24 25 17 17 17 18 18 22 22 21 24 22 21 20 22 23 20 28 34 39 37 31 35 36 40 45 48 54 54 58 60 62 64 64 64 62 61 61 60 61 59 58 60 62 63 62 59 59 59 57 60 59 60 58 60 62 64 66 66 65 64 64 64 64 63 63 62 62 62 62 62 62 62 63 64 63 64 64
22 26 17 20 19 15 21 28 31 30 25 22 18 16 18 19 22 22 20 26 23 22 24 25 23 25 40 41 39 41 45 42 49 49 49 51 56 58 61 61 65 66 64 61 61 60 60 62 61 61 63 64 65 64 62 61 59 60 61 60 60 59 59 57 60 64 66 65 64 64 64 64 63 62 62 62 61 59 58 57 59 61 62 62 62 63
39 28 23 19 29 26 27 27 30 26 24 22 20 22 16 16 17 20 22 30 26 27 23 22 27 23 45 55 51 52 57 53 55 55 57 53 54 58 61 62 65 66 66 63 62 61 63 63 64 65 66 67 67 65 64 63 63 62 61 59 57 59 61 61 60 61 65 65 63 64 64 64 63 62 60 58 59 58 57 56 57 58 59 61 60 61
22 32 25 25 28 27 26 28 23 25 23 20 19 21 21 20 21 25 32 34 27 26 25 22 21 21 48 54 51 52 48 40 41 46 55 56 57 58 62 64 65 67 67 66 65 64 65 65 66 67 68 68 67 66 66 67 65 63 63 60 55 56 59 62 62 62 62 62 62 62 63 63 62 60 60 59 56 57 55 53 54 57 59 60 60 62
20 32 32 22 22 21 24 20 21 25 23 20 20 19 24 22 27 28 25 32 23 33 35 25 24 27 42 49 45 46 46 48 46 45 48 56 59 59 61 64 66 67 68 68 66 66 66 67 68 69 68 68 67 66 68 68 67 65 64 63 59 57 59 60 61 62 62 59 60 62 63 62 61 60 59 58 58 58 58 58 59 57 54 56 55 58
26 36 31 28 21 20 21 28 25 24 23 19 19 26 25 22 22 27 28 28 23 40 34 32 32 29 33 35 37 38 39 37 35 40 49 53 58 61 64 65 66 67 68 67 67 67 67 69 69 69 69 68 66 67 68 68 66 65 66 66 61 61 61 63 64 64 62 60 58 61 62 61 60 60 58 59 59 59 57 56 54 53 55 54 54 54
43 33 34 38 36 29 26 38 29 25 20 21 20 23 23 23 25 26 28 28 43 35 24 34 42 36 32 34 36 40 39 40 41 47 45 54 58 59 61 65 66 66 68 67 67 67 67 69 69 69 69 68 66 67 67 67 65 65 67 64 62 61 60 61 64 65 63 62 62 62 61 61 60 60 60 60 60 60 59 59 59 59 59 57 55 53
31 25 25 26 25 34 29 28 27 24 21 22 21 21 24 24 27 27 35 39 43 28 22 44 47 41 38 34 34 38 40 40 37 40 45 49 54 61 62 63 64 64 66 66 67 67 68 68 69 69 68 68 67 67 67 66 65 66 67 63 64 61 62 64 65 65 63 63 62 63 63 61 60 60 60 60 60 60 60 61 61 60 59 58 58 57
42 26 36 29 28 29 32 27 29 23 24 22 21 23 24 23 26 25 27 31 38 40 38 42 47 44 38 36 36 38 40 39 42 49 49 51 49 57 60 62 62 63 64 65 66 67 67 68 69 69 69 68 67 68 66 66 67 67 66 63 62 64 62 64 66 66 64 62 62 63 63 62 62 61 61 60 60 61 61 61 60 58 58 57 56 58
37 42 38 30 32 31 30 31 28 26 27 24 22 24 23 23 24 25 24 32 38 37 36 38 42 40 38 42 46 42 42 45 50 46 42 49 51 53 57 59 61 61 62 64 66 66 67 68 68 69 68 68 67 68 66 67 67 67 60 59 59 63 63 64 66 65 64 63 63 63 63 62 61 62 61 61 61 62 62 62 60 59 58 58 59 60
34 45 39 35 28 32 30 27 28 28 25 26 28 27 26 24 27 29 33 36 38 39 42 40 38 34 34 37 42 44 44 46 45 46 49 52 53 54 56 58 60 62 62 63 64 66 66 67 67 68 68 67 67 67 66 67 66 65 61 60 60 59 61 64 64 63 64 63 63 63 63 61 61 61 60 61 62 62 63 63 60 59 59 58 58 60
33 40 36 32 26 29 31 29 27 26 26 28 30 28 28 28 28 29 31 38 37 34 35 33 31 34 38 42 38 37 36 39 44 51 52 54 58 57 57 59 60 61 62 63 64 65 65 65 66 67 66 66 66 65 65 66 64 64 63 63 62 62 62 63 62 63 63 63 63 63 63 63 61 61 61 61 62 63 63 64 60 59 58 57 58 59
42 38 32 32 28 31 29 29 29 27 25 25 41 29 31 27 29 30 30 37 39 38 31 32 32 37 37 35 37 40 40 43 49 54 58 55 53 59 59 58 59 61 62 62 64 64 65 65 66 66 66 65 65 62 62 63 63 63 63 62 63 63 64 64 62 62 62 63 63 63 63 62 61 61 61 61 62 63 64 63 59 58 57 56 58 59
35 37 31 40 30 30 36 35 29 28 25 47 40 38 36 31 30 31 32 33 33 37 36 33 35 39 40 37 38 41 48 53 54 56 55 56 57 56 58 59 60 61 62 62 63 63 65 66 67 66 64 64 60 61 62 64 65 64 62 61 61 62 65 64 62 62 62 62 63 63 63 62 61 61 61 62 63 64 63 61 59 59 57 56 57 57
36 33 39 34 30 35 34 31 25 25 43 40 40 39 41 37 39 36 34 35 35 33 39 38 38 36 38 37 37 49 55 54 54 57 59 58 57 57 55 57 59 60 61 62 64 64 66 66 65 65 65 63 61 61 61 64 61 58 60 60 60 63 63 62 62 61 62 62 62 62 62 61 61 62 62 63 64 63 62 59 58 58 58 59 58 58
39 38 35 31 41 30 30 27 28 41 38 39 37 39 35 36 36 34 34 34 38 37 36 38 38 37 36 36 42 51 54 52 52 51 59 57 58 57 56 58 55 59 60 62 62 64 68 67 66 65 67 66 65 64 60 60 59 59 59 58 59 61 60 59 61 61 61 61 61 60 60 60 60 61 61 61 62 62 60 57 57 57 59 59 58 55
46 41 38 32 36 34 28 27 28 29 30 34 40 37 36 34 36 37 36 33 38 36 35 36 39 40 39 37 50 54 56 51 39 38 55 52 54 57 56 57 56 59 61 61 64 66 68 67 66 67 64 65 65 63 62 61 59 61 61 59 59 57 57 58 59 60 61 60 60 60 60 61 61 60 60 61 61 60 59 56 56 57 59 58 56 55
42 45 49 33 34 34 33 30 26 27 29 33 36 40 39 40 33 38 33 29 35 36 36 35 34 37 38 38 56 55 47 35 36 44 52 56 53 53 55 56 56 57 61 62 63 65 65 66 67 65 66 66 65 63 65 65 61 60 61 61 58 56 56 58 59 59 59 60 60 60 60 60 60 60 60 60 59 59 58 57 58 59 63 61 58 58
36 34 37 35 33 32 32 29 26 31 28 39 39 35 34 38 38 36 29 27 36 36 33 36 35 35 39 44 54 52 42 32 33 49 51 55 55 55 59 60 60 61 62 64 64 66 67 68 67 67 66 66 66 66 66 65 62 61 60 58 57 56 56 58 60 60 59 59 59 61 62 61 62 62 60 60 60 60 60 63 62 61 62 60 57 56
37 37 35 31 29 32 36 28 27 31 42 41 38 34 35 35 34 32 27 30 38 38 37 39 36 36 41 53 52 43 48 48 57 55 55 53 54 57 59 60 61 62 63 62 62 65 66 67 67 66 66 66 67 65 66 65 64 62 62 62 61 59 58 60 61 60 60 61 61 61 62 61 60 61 60 60 60 61 62 61 59 59 59 57 57 59
37 39 36 37 30 29 30 29 28 30 45 40 37 33 36 34 32 28 47 48 43 40 43 40 37 39 42 51 51 45 45 55 55 54 55 54 57 60 59 59 60 60 60 62 64 64 65 64 66 66 64 67 67 66 67 68 67 66 65 64 63 62 59 61 61 62 65 64 63 62 61 61 61 61 60 61 65 65 63 61 60 58 58 57 59 60
33 35 33 31 35 31 36 33 29 28 47 37 36 38 39 35 34 49 51 49 45 48 44 46 45 44 47 51 53 54 53 48 49 53 55 57 59 59 59 59 61 61 60 63 64 63 62 64 64 63 63 61 62 66 67 68 67 67 66 65 66 63 61 63 65 67 66 64 62 62 62 61 61 61 62 64 65 62 61 61 60 59 60 60 60 60
48 34 31 30 35 31 34 32 31 39 40 38 39 37 44 40 53 55 51 45 47 45 47 49 47 51 55 57 55 55 54 56 59 60 60 59 59 59 60 62 62 61 61 57 57 61 59 63 64 63 63 58 62 66 67 67 67 67 66 66 66 66 66 68 68 67 63 62 61 60 59 59 61 63 63 63 63 62 61 61 61 59 60 60 59 58
49 45 47 36 40 35 34 35 46 47 45 41 44 45 45 45 46 47 48 46 46 44 49 50 51 52 59 58 58 57 55 56 57 59 60 59 60 59 62 62 61 61 60 58 54 60 60 59 63 63 64 66 68 68 67 66 66 66 66 66 67 68 68 68 66 63 62 61 60 60 59 60 60 61 61 62 61 61 60 59 59 58 60 60 58 58
42 46 49 45 39 46 42 45 40 42 44 42 39 44 42 41 42 44 46 48 49 48 48 48 50 50 58 59 55 56 53 57 59 59 59 60 61 63 63 63 63 62 61 62 63 63 62 62 63 64 65 66 67 66 66 66 65 65 66 66 67 69 67 65 63 61 60 60 59 59 60 59 58 60 61 61 59 59 58 59 58 56 57 57 56 57
40 38 39 36 46 35 35 44 43 41 42 42 41 42 41 40 43 45 50 53 53 53 51 53 54 56 57 58 57 56 54 57 58 60 62 62 62 62 61 62 63 62 61 61 63 64 62 61 58 59 60 61 64 64 61 63 64 65 65 66 68 65 64 63 61 60 60 59 58 60 60 59 54 53 57 61 59 57 57 57 56 56 56 56 55 56
38 43 40 39 41 36 40 44 42 39 43 44 41 40 39 41 43 47 48 52 55 55 55 56 57 57 58 57 57 55 56 55 56 60 59 60 61 61 62 62 63 62 63 65 65 63 61 61 60 59 61 63 64 65 63 60 62 63 64 63 59 59 62 61 60 58 60 59 58 58 58 58 55 55 53 55 56 52 53 56 56 55 55 55 56 56
43 41 34 40 37 38 41 42 42 41 41 44 40 43 41 39 42 47 49 50 51 52 53 55 56 56 56 54 57 57 54 55 56 55 50 55 57 57 59 60 63 64 64 65 64 65 65 66 65 65 63 64 64 63 63 63 60 59 64 60 58 63 59 58 59 59 59 58 57 56 58 55 56 56 55 55 57 56 57 60 59 57 59 58 59 58
36 37 40 39 37 35 36 42 42 36 36 40 42 40 40 41 45 48 50 49 50 52 54 54 55 56 53 55 57 54 55 57 55 53 46 52 55 59 61 63 63 63 64 65 66 66 66 65 65 64 63 64 63 62 62 63 63 60 56 58 60 61 59 61 57 56 54 55 53 51 52 54 52 54 55 53 52 55 59 52 45 51 59 56 51 48
39 45 41 38 36 35 40 41 47 46 45 45 43 41 42 44 47 46 49 50 50 52 53 55 54 55 56 56 53 53 56 57 56 53 50 51 60 63 62 62 61 61 62 62 63 63 64 64 63 64 63 62 62 62 61 61 60 61 58 61 60 59 61 61 58 55 52 54 51 53 55 53 52 54 57 57 54 53 53 57 54 44 45 49 49 46